Location: Unspecified
(33.2407°S, 0.0000°E)
Time: 04:10:04
(UTC+00:00)

Hubble Space Telescope - Pass Details

Date: 25 May 2019
Orbit: 536 x 540 km, 28.5° (Epoch: 16 June)

Event Time Altitude Azimuth Distance (km) Brightness Sun altitude
Exits shadow 04:33:32 22° 27° (NNE) 1,196 2.8 -28.3°
Drops below altitude 10° 04:35:31 10° 49° (NE) 1,793 4.1 -27.9°
Sets 04:37:58 0° 59° (ENE) 2,683 5.4 -27.3°
